Year,Month,Day,Hour,Minute,Value (Times are PST for temperature in C)
2019,06,15,00,00,14.50
2019,06,15,00,01,14.50
2019,06,15,00,02,14.50
2019,06,15,00,03,14.50
2019,06,15,00,04,14.50
2019,06,15,00,05,14.50
2019,06,15,00,06,14.50
2019,06,15,00,07,14.40
2019,06,15,00,08,14.40
2019,06,15,00,09,14.40
2019,06,15,00,10,14.30
2019,06,15,00,11,14.30
2019,06,15,00,12,14.30
2019,06,15,00,13,14.30
2019,06,15,00,14,14.30
2019,06,15,00,15,14.20
2019,06,15,00,16,14.20
2019,06,15,00,17,14.20
2019,06,15,00,18,14.20
2019,06,15,00,19,14.20
2019,06,15,00,20,14.10
2019,06,15,00,21,14.10
2019,06,15,00,22,14.10
2019,06,15,00,23,14.10
2019,06,15,00,24,14.00
2019,06,15,00,25,14.00
2019,06,15,00,26,14.00
2019,06,15,00,27,14.00
2019,06,15,00,28,14.00
2019,06,15,00,29,14.00
2019,06,15,00,30,13.90
2019,06,15,00,31,13.90
2019,06,15,00,32,13.90
2019,06,15,00,33,13.90
2019,06,15,00,34,13.80
2019,06,15,00,35,13.80
2019,06,15,00,36,13.80
2019,06,15,00,37,13.80
2019,06,15,00,38,13.80
2019,06,15,00,39,13.80
2019,06,15,00,40,13.80
2019,06,15,00,41,13.80
2019,06,15,00,42,13.80
2019,06,15,00,43,13.70
2019,06,15,00,44,13.70
2019,06,15,00,45,13.70
2019,06,15,00,46,13.70
2019,06,15,00,47,13.70
2019,06,15,00,48,13.70
2019,06,15,00,49,13.70
2019,06,15,00,50,13.70
2019,06,15,00,51,13.70
2019,06,15,00,52,13.60
2019,06,15,00,53,13.60
2019,06,15,00,54,13.60
2019,06,15,00,55,13.60
2019,06,15,00,56,13.50
2019,06,15,00,57,13.50
2019,06,15,00,58,13.50
2019,06,15,00,59,13.40
2019,06,15,01,00,13.40
2019,06,15,01,01,13.40
2019,06,15,01,02,13.40
2019,06,15,01,03,13.40
2019,06,15,01,04,13.40
2019,06,15,01,05,13.40
2019,06,15,01,06,13.40
2019,06,15,01,07,13.40
2019,06,15,01,08,13.40
2019,06,15,01,09,13.40
2019,06,15,01,10,13.40
2019,06,15,01,11,13.40
2019,06,15,01,12,13.40
2019,06,15,01,13,13.40
2019,06,15,01,14,13.30
2019,06,15,01,15,13.30
2019,06,15,01,16,13.30
2019,06,15,01,17,13.30
2019,06,15,01,18,13.30
2019,06,15,01,19,13.30
2019,06,15,01,20,13.20
2019,06,15,01,21,13.20
2019,06,15,01,22,13.20
2019,06,15,01,23,13.20
2019,06,15,01,24,13.20
2019,06,15,01,25,13.20
2019,06,15,01,26,13.20
2019,06,15,01,27,13.20
2019,06,15,01,28,13.10
2019,06,15,01,29,13.10
2019,06,15,01,30,13.10
2019,06,15,01,31,13.10
2019,06,15,01,32,13.10
2019,06,15,01,33,13.20
2019,06,15,01,34,13.20
2019,06,15,01,35,13.20
2019,06,15,01,36,13.20
2019,06,15,01,37,13.20
2019,06,15,01,38,13.20
2019,06,15,01,39,13.20
2019,06,15,01,40,13.20
2019,06,15,01,41,13.20
2019,06,15,01,42,13.20
2019,06,15,01,43,13.20
2019,06,15,01,44,13.20
2019,06,15,01,45,13.20
2019,06,15,01,46,13.20
2019,06,15,01,47,13.20
2019,06,15,01,48,13.20
2019,06,15,01,49,13.30
2019,06,15,01,50,13.30
2019,06,15,01,51,13.30
2019,06,15,01,52,13.30
2019,06,15,01,53,13.30
2019,06,15,01,54,13.30
2019,06,15,01,55,13.40
2019,06,15,01,56,13.40
2019,06,15,01,57,13.40
2019,06,15,01,58,13.50
2019,06,15,01,59,13.50
2019,06,15,02,00,13.50
2019,06,15,02,01,13.50
2019,06,15,02,02,13.50
2019,06,15,02,03,13.50
2019,06,15,02,04,13.50
2019,06,15,02,05,13.50
2019,06,15,02,06,13.60
2019,06,15,02,07,13.60
2019,06,15,02,08,13.60
2019,06,15,02,09,13.60
2019,06,15,02,10,13.60
2019,06,15,02,11,13.60
2019,06,15,02,12,13.50
2019,06,15,02,13,13.60
2019,06,15,02,14,13.60
2019,06,15,02,15,13.50
2019,06,15,02,16,13.50
2019,06,15,02,17,13.50
2019,06,15,02,18,13.50
2019,06,15,02,19,13.50
2019,06,15,02,20,13.50
2019,06,15,02,21,13.50
2019,06,15,02,22,13.50
2019,06,15,02,23,13.40
2019,06,15,02,24,13.40
2019,06,15,02,25,13.40
2019,06,15,02,26,13.30
2019,06,15,02,27,13.30
2019,06,15,02,28,13.30
2019,06,15,02,29,13.20
2019,06,15,02,30,13.20
2019,06,15,02,31,13.20
2019,06,15,02,32,13.20
2019,06,15,02,33,13.20
2019,06,15,02,34,13.10
2019,06,15,02,35,13.10
2019,06,15,02,36,13.10
2019,06,15,02,37,13.10
2019,06,15,02,38,13.10
2019,06,15,02,39,13.10
2019,06,15,02,40,13.10
2019,06,15,02,41,13.10
2019,06,15,02,42,13.20
2019,06,15,02,43,13.20
2019,06,15,02,44,13.30
2019,06,15,02,45,13.30
2019,06,15,02,46,13.40
2019,06,15,02,47,13.40
2019,06,15,02,48,13.40
2019,06,15,02,49,13.50
2019,06,15,02,50,13.60
2019,06,15,02,51,13.60
2019,06,15,02,52,13.70
2019,06,15,02,53,13.70
2019,06,15,02,54,13.70
2019,06,15,02,55,13.80
2019,06,15,02,56,13.80
2019,06,15,02,57,13.80
2019,06,15,02,58,13.80
2019,06,15,02,59,13.80
2019,06,15,03,00,13.90
2019,06,15,03,01,13.90
2019,06,15,03,02,13.90
2019,06,15,03,03,13.90
2019,06,15,03,04,13.90
2019,06,15,03,05,13.90
2019,06,15,03,06,13.90
2019,06,15,03,07,13.90
2019,06,15,03,08,13.90
2019,06,15,03,09,13.90
2019,06,15,03,10,13.90
2019,06,15,03,11,13.90
2019,06,15,03,12,14.00
2019,06,15,03,13,14.00
2019,06,15,03,14,14.00
2019,06,15,03,15,14.00
2019,06,15,03,16,14.00
2019,06,15,03,17,14.10
2019,06,15,03,18,14.10
2019,06,15,03,19,14.10
2019,06,15,03,20,14.10
2019,06,15,03,21,14.10
2019,06,15,03,22,14.10
2019,06,15,03,23,14.10
2019,06,15,03,24,14.20
2019,06,15,03,25,14.20
2019,06,15,03,26,14.20
2019,06,15,03,27,14.20
2019,06,15,03,28,14.30
2019,06,15,03,29,14.30
2019,06,15,03,30,14.30
2019,06,15,03,31,14.30
2019,06,15,03,32,14.20
2019,06,15,03,33,14.20
2019,06,15,03,34,14.20
2019,06,15,03,35,14.10
2019,06,15,03,36,14.10
2019,06,15,03,37,14.10
2019,06,15,03,38,14.10
2019,06,15,03,39,14.10
2019,06,15,03,40,14.10
2019,06,15,03,41,14.10
2019,06,15,03,42,14.10
2019,06,15,03,43,14.10
2019,06,15,03,44,14.10
2019,06,15,03,45,14.10
2019,06,15,03,46,14.00
2019,06,15,03,47,14.00
2019,06,15,03,48,14.00
2019,06,15,03,49,14.00
2019,06,15,03,50,14.00
2019,06,15,03,51,14.00
2019,06,15,03,52,14.00
2019,06,15,03,53,14.00
2019,06,15,03,54,14.00
2019,06,15,03,55,14.00
2019,06,15,03,56,14.00
2019,06,15,03,57,13.90
2019,06,15,03,58,13.90
2019,06,15,03,59,13.90
2019,06,15,04,00,13.90
2019,06,15,04,01,13.90
2019,06,15,04,02,14.00
2019,06,15,04,03,14.00
2019,06,15,04,04,14.00
2019,06,15,04,05,14.00
2019,06,15,04,06,14.00
2019,06,15,04,07,14.10
2019,06,15,04,08,14.10
2019,06,15,04,09,14.10
2019,06,15,04,10,14.10
2019,06,15,04,11,14.20
2019,06,15,04,12,14.20
2019,06,15,04,13,14.10
2019,06,15,04,14,14.10
2019,06,15,04,15,14.10
2019,06,15,04,16,14.10
2019,06,15,04,17,14.10
2019,06,15,04,18,14.10
2019,06,15,04,19,14.00
2019,06,15,04,20,14.00
2019,06,15,04,21,13.90
2019,06,15,04,22,13.90
2019,06,15,04,23,13.80
2019,06,15,04,24,13.80
2019,06,15,04,25,13.70
2019,06,15,04,26,13.60
2019,06,15,04,27,13.60
2019,06,15,04,28,13.50
2019,06,15,04,29,13.40
2019,06,15,04,30,13.40
2019,06,15,04,31,13.40
2019,06,15,04,32,13.30
2019,06,15,04,33,13.30
2019,06,15,04,34,13.20
2019,06,15,04,35,13.20
2019,06,15,04,36,13.20
2019,06,15,04,37,13.10
2019,06,15,04,38,13.10
2019,06,15,04,39,13.10
2019,06,15,04,40,13.00
2019,06,15,04,41,13.00
2019,06,15,04,42,13.00
2019,06,15,04,43,12.90
2019,06,15,04,44,12.90
2019,06,15,04,45,12.80
2019,06,15,04,46,12.80
2019,06,15,04,47,12.80
2019,06,15,04,48,12.70
2019,06,15,04,49,12.70
2019,06,15,04,50,12.70
2019,06,15,04,51,12.70
2019,06,15,04,52,12.60
2019,06,15,04,53,12.60
2019,06,15,04,54,12.60
2019,06,15,04,55,12.50
2019,06,15,04,56,12.50
2019,06,15,04,57,12.50
2019,06,15,04,58,12.40
2019,06,15,04,59,12.40
2019,06,15,05,00,12.40
2019,06,15,05,01,12.40
2019,06,15,05,02,12.30
2019,06,15,05,03,12.30
2019,06,15,05,04,12.30
2019,06,15,05,05,12.30
2019,06,15,05,06,12.20
2019,06,15,05,07,12.20
2019,06,15,05,08,12.20
2019,06,15,05,09,12.20
2019,06,15,05,10,12.20
2019,06,15,05,11,12.20
2019,06,15,05,12,12.10
2019,06,15,05,13,12.10
2019,06,15,05,14,12.10
2019,06,15,05,15,12.10
2019,06,15,05,16,12.10
2019,06,15,05,17,12.10
2019,06,15,05,18,12.10
2019,06,15,05,19,12.00
2019,06,15,05,20,12.00
2019,06,15,05,21,12.00
2019,06,15,05,22,12.00
2019,06,15,05,23,11.90
2019,06,15,05,24,11.90
2019,06,15,05,25,11.90
2019,06,15,05,26,11.90
2019,06,15,05,27,11.90
2019,06,15,05,28,11.90
2019,06,15,05,29,11.90
2019,06,15,05,30,11.90
2019,06,15,05,31,11.80
2019,06,15,05,32,11.80
2019,06,15,05,33,11.80
2019,06,15,05,34,11.80
2019,06,15,05,35,11.80
2019,06,15,05,36,11.80
2019,06,15,05,37,11.80
2019,06,15,05,38,11.80
2019,06,15,05,39,11.80
2019,06,15,05,40,11.80
2019,06,15,05,41,11.80
2019,06,15,05,42,11.80
2019,06,15,05,43,11.80
2019,06,15,05,44,11.80
2019,06,15,05,45,11.80
2019,06,15,05,46,11.80
2019,06,15,05,47,11.80
2019,06,15,05,48,11.80
2019,06,15,05,49,11.80
2019,06,15,05,50,11.80
2019,06,15,05,51,11.80
2019,06,15,05,52,11.80
2019,06,15,05,53,11.80
2019,06,15,05,54,11.80
2019,06,15,05,55,11.80
2019,06,15,05,56,11.80
2019,06,15,05,57,11.80
2019,06,15,05,58,11.80
2019,06,15,05,59,11.80
2019,06,15,06,00,11.80
2019,06,15,06,01,11.80
2019,06,15,06,02,11.90
2019,06,15,06,03,11.90
2019,06,15,06,04,11.90
2019,06,15,06,05,11.90
2019,06,15,06,06,11.90
2019,06,15,06,07,11.90
2019,06,15,06,08,11.90
2019,06,15,06,09,12.00
2019,06,15,06,10,12.00
2019,06,15,06,11,12.00
2019,06,15,06,12,12.10
2019,06,15,06,13,12.10
2019,06,15,06,14,12.10
2019,06,15,06,15,12.10
2019,06,15,06,16,12.10
2019,06,15,06,17,12.20
2019,06,15,06,18,12.20
2019,06,15,06,19,12.20
2019,06,15,06,20,12.20
2019,06,15,06,21,12.20
2019,06,15,06,22,12.30
2019,06,15,06,23,12.30
2019,06,15,06,24,12.30
2019,06,15,06,25,12.40
2019,06,15,06,26,12.40
2019,06,15,06,27,12.40
2019,06,15,06,28,12.40
2019,06,15,06,29,12.50
2019,06,15,06,30,12.50
2019,06,15,06,31,12.60
2019,06,15,06,32,12.60
2019,06,15,06,33,12.70
2019,06,15,06,34,12.70
2019,06,15,06,35,12.70
2019,06,15,06,36,12.80
2019,06,15,06,37,12.80
2019,06,15,06,38,12.80
2019,06,15,06,39,12.90
2019,06,15,06,40,13.00
2019,06,15,06,41,13.00
2019,06,15,06,42,13.10
2019,06,15,06,43,13.10
2019,06,15,06,44,13.20
2019,06,15,06,45,13.20
2019,06,15,06,46,13.30
2019,06,15,06,47,13.30
2019,06,15,06,48,13.40
2019,06,15,06,49,13.50
2019,06,15,06,50,13.50
2019,06,15,06,51,13.60
2019,06,15,06,52,13.70
2019,06,15,06,53,13.80
2019,06,15,06,54,13.80
2019,06,15,06,55,13.90
2019,06,15,06,56,14.00
2019,06,15,06,57,14.00
2019,06,15,06,58,14.10
2019,06,15,06,59,14.20
2019,06,15,07,00,14.20
2019,06,15,07,01,14.30
2019,06,15,07,02,14.40
2019,06,15,07,03,14.50
2019,06,15,07,04,14.60
2019,06,15,07,05,14.70
2019,06,15,07,06,14.70
2019,06,15,07,07,14.80
2019,06,15,07,08,14.90
2019,06,15,07,09,15.00
2019,06,15,07,10,15.00
2019,06,15,07,11,15.10
2019,06,15,07,12,15.20
2019,06,15,07,13,15.20
2019,06,15,07,14,15.20
2019,06,15,07,15,15.30
2019,06,15,07,16,15.40
2019,06,15,07,17,15.40
2019,06,15,07,18,15.50
2019,06,15,07,19,15.50
2019,06,15,07,20,15.60
2019,06,15,07,21,15.70
2019,06,15,07,22,15.70
2019,06,15,07,23,15.80
2019,06,15,07,24,15.90
2019,06,15,07,25,16.00
2019,06,15,07,26,16.10
2019,06,15,07,27,16.10
2019,06,15,07,28,16.20
2019,06,15,07,29,16.20
2019,06,15,07,30,16.20
2019,06,15,07,31,16.30
2019,06,15,07,32,16.30
2019,06,15,07,33,16.30
2019,06,15,07,34,16.30
2019,06,15,07,35,16.30
2019,06,15,07,36,16.30
2019,06,15,07,37,16.30
2019,06,15,07,38,16.30
2019,06,15,07,39,16.20
2019,06,15,07,40,16.20
2019,06,15,07,41,16.20
2019,06,15,07,42,16.20
2019,06,15,07,43,16.20
2019,06,15,07,44,16.20
2019,06,15,07,45,16.30
2019,06,15,07,46,16.30
2019,06,15,07,47,16.30
2019,06,15,07,48,16.30
2019,06,15,07,49,16.30
2019,06,15,07,50,16.20
2019,06,15,07,51,16.20
2019,06,15,07,52,16.20
2019,06,15,07,53,16.20
2019,06,15,07,54,16.20
2019,06,15,07,55,16.20
2019,06,15,07,56,16.20
2019,06,15,07,57,16.30
2019,06,15,07,58,16.30
2019,06,15,07,59,16.30
2019,06,15,08,00,16.30
2019,06,15,08,01,16.30
2019,06,15,08,02,16.30
2019,06,15,08,03,16.30
2019,06,15,08,04,16.30
2019,06,15,08,05,16.40
2019,06,15,08,06,16.40
2019,06,15,08,07,16.40
2019,06,15,08,08,16.40
2019,06,15,08,09,16.40
2019,06,15,08,10,16.40
2019,06,15,08,11,16.40
2019,06,15,08,12,16.30
2019,06,15,08,13,16.30
2019,06,15,08,14,16.30
2019,06,15,08,15,16.30
2019,06,15,08,16,16.20
2019,06,15,08,17,16.20
2019,06,15,08,18,16.20
2019,06,15,08,19,16.20
2019,06,15,08,20,16.20
2019,06,15,08,21,16.20
2019,06,15,08,22,16.20
2019,06,15,08,23,16.10
2019,06,15,08,24,16.10
2019,06,15,08,25,16.10
2019,06,15,08,26,16.00
2019,06,15,08,27,16.00
2019,06,15,08,28,16.00
2019,06,15,08,29,16.00
2019,06,15,08,30,16.00
2019,06,15,08,31,16.10
2019,06,15,08,32,16.10
2019,06,15,08,33,16.10
2019,06,15,08,34,16.10
2019,06,15,08,35,16.10
2019,06,15,08,36,16.10
2019,06,15,08,37,16.10
2019,06,15,08,38,16.10
2019,06,15,08,39,16.10
2019,06,15,08,40,16.10
2019,06,15,08,41,16.10
2019,06,15,08,42,16.10
2019,06,15,08,43,16.10
2019,06,15,08,44,16.10
2019,06,15,08,45,16.00
2019,06,15,08,46,16.10
2019,06,15,08,47,16.10
2019,06,15,08,48,16.10
2019,06,15,08,49,16.10
2019,06,15,08,50,16.10
2019,06,15,08,51,16.00
2019,06,15,08,52,16.00
2019,06,15,08,53,16.00
2019,06,15,08,54,16.00
2019,06,15,08,55,16.00
2019,06,15,08,56,16.10
2019,06,15,08,57,16.10
2019,06,15,08,58,16.10
2019,06,15,08,59,16.10
2019,06,15,09,00,16.20
2019,06,15,09,01,16.20
2019,06,15,09,02,16.20
2019,06,15,09,03,16.20
2019,06,15,09,04,16.30
2019,06,15,09,05,16.30
2019,06,15,09,06,16.30
2019,06,15,09,07,16.30
2019,06,15,09,08,16.30
2019,06,15,09,09,16.30
2019,06,15,09,10,16.30
2019,06,15,09,11,16.30
2019,06,15,09,12,16.40
2019,06,15,09,13,16.40
2019,06,15,09,14,16.40
2019,06,15,09,15,16.50
2019,06,15,09,16,16.50
2019,06,15,09,17,16.60
2019,06,15,09,18,16.60
2019,06,15,09,19,16.60
2019,06,15,09,20,16.60
2019,06,15,09,21,16.70
2019,06,15,09,22,16.70
2019,06,15,09,23,16.60
2019,06,15,09,24,16.50
2019,06,15,09,25,16.40
2019,06,15,09,26,16.40
2019,06,15,09,27,16.40
2019,06,15,09,28,16.50
2019,06,15,09,29,16.50
2019,06,15,09,30,16.60
2019,06,15,09,31,16.60
2019,06,15,09,32,16.70
2019,06,15,09,33,16.70
2019,06,15,09,34,16.70
2019,06,15,09,35,16.70
2019,06,15,09,36,16.70
2019,06,15,09,37,16.70
2019,06,15,09,38,16.80
2019,06,15,09,39,16.70
2019,06,15,09,40,16.70
2019,06,15,09,41,16.70
2019,06,15,09,42,16.60
2019,06,15,09,43,16.60
2019,06,15,09,44,16.60
2019,06,15,09,45,16.60
2019,06,15,09,46,16.60
2019,06,15,09,47,16.60
2019,06,15,09,48,16.60
2019,06,15,09,49,16.60
2019,06,15,09,50,16.50
2019,06,15,09,51,16.40
2019,06,15,09,52,16.40
2019,06,15,09,53,16.40
2019,06,15,09,54,16.40
2019,06,15,09,55,16.50
2019,06,15,09,56,16.50
2019,06,15,09,57,16.50
2019,06,15,09,58,16.60
2019,06,15,09,59,16.60
2019,06,15,10,00,16.60
2019,06,15,10,01,16.50
2019,06,15,10,02,16.50
2019,06,15,10,03,16.50
2019,06,15,10,04,16.50
2019,06,15,10,05,16.50
2019,06,15,10,06,16.50
2019,06,15,10,07,16.50
2019,06,15,10,08,16.40
2019,06,15,10,09,16.40
2019,06,15,10,10,16.30
2019,06,15,10,11,16.30
2019,06,15,10,12,16.40
2019,06,15,10,13,16.40
2019,06,15,10,14,16.40
2019,06,15,10,15,16.50
2019,06,15,10,16,16.60
2019,06,15,10,17,16.60
2019,06,15,10,18,16.60
2019,06,15,10,19,16.60
2019,06,15,10,20,16.60
2019,06,15,10,21,16.60
2019,06,15,10,22,16.60
2019,06,15,10,23,16.70
2019,06,15,10,24,16.80
2019,06,15,10,25,16.80
2019,06,15,10,26,16.90
2019,06,15,10,27,16.90
2019,06,15,10,28,17.00
2019,06,15,10,29,17.00
2019,06,15,10,30,16.90
2019,06,15,10,31,16.90
2019,06,15,10,32,16.80
2019,06,15,10,33,16.80
2019,06,15,10,34,16.80
2019,06,15,10,35,16.80
2019,06,15,10,36,16.80
2019,06,15,10,37,16.90
2019,06,15,10,38,16.80
2019,06,15,10,39,16.80
2019,06,15,10,40,16.70
2019,06,15,10,41,16.60
2019,06,15,10,42,16.60
2019,06,15,10,43,16.70
2019,06,15,10,44,16.80
2019,06,15,10,45,16.80
2019,06,15,10,46,16.90
2019,06,15,10,47,17.00
2019,06,15,10,48,17.10
2019,06,15,10,49,17.10
2019,06,15,10,50,17.10
2019,06,15,10,51,17.10
2019,06,15,10,52,17.00
2019,06,15,10,53,16.90
2019,06,15,10,54,16.90
2019,06,15,10,55,16.90
2019,06,15,10,56,16.80
2019,06,15,10,57,16.80
2019,06,15,10,58,16.80
2019,06,15,10,59,16.80
2019,06,15,11,00,16.90
2019,06,15,11,01,16.90
2019,06,15,11,02,16.90
2019,06,15,11,03,16.90
2019,06,15,11,04,16.90
2019,06,15,11,05,16.90
2019,06,15,11,06,16.80
2019,06,15,11,07,16.80
2019,06,15,11,08,16.70
2019,06,15,11,09,16.70
2019,06,15,11,10,16.70
2019,06,15,11,11,16.70
2019,06,15,11,12,16.70
2019,06,15,11,13,16.70
2019,06,15,11,14,16.70
2019,06,15,11,15,16.80
2019,06,15,11,16,16.80
2019,06,15,11,17,16.80
2019,06,15,11,18,16.90
2019,06,15,11,19,16.90
2019,06,15,11,20,17.00
2019,06,15,11,21,17.00
2019,06,15,11,22,17.10
2019,06,15,11,23,17.10
2019,06,15,11,24,17.20
2019,06,15,11,25,17.20
2019,06,15,11,26,17.20
2019,06,15,11,27,17.20
2019,06,15,11,28,17.20
2019,06,15,11,29,17.20
2019,06,15,11,30,17.30
2019,06,15,11,31,17.30
2019,06,15,11,32,17.30
2019,06,15,11,33,17.30
2019,06,15,11,34,17.30
2019,06,15,11,35,17.30
2019,06,15,11,36,17.30
2019,06,15,11,37,17.30
2019,06,15,11,38,17.40
2019,06,15,11,39,17.40
2019,06,15,11,40,17.40
2019,06,15,11,41,17.30
2019,06,15,11,42,17.30
2019,06,15,11,43,17.30
2019,06,15,11,44,17.30
2019,06,15,11,45,17.30
2019,06,15,11,46,17.30
2019,06,15,11,47,17.40
2019,06,15,11,48,17.40
2019,06,15,11,49,17.50
2019,06,15,11,50,17.50
2019,06,15,11,51,17.60
2019,06,15,11,52,17.70
2019,06,15,11,53,17.80
2019,06,15,11,54,17.80
2019,06,15,11,55,17.70
2019,06,15,11,56,17.50
2019,06,15,11,57,17.50
2019,06,15,11,58,17.50
2019,06,15,11,59,17.50
2019,06,15,12,00,17.60
2019,06,15,12,01,17.70
2019,06,15,12,02,17.70
2019,06,15,12,03,17.60
2019,06,15,12,04,17.60
2019,06,15,12,05,17.60
2019,06,15,12,06,17.60
2019,06,15,12,07,17.60
2019,06,15,12,08,17.60
2019,06,15,12,09,17.60
2019,06,15,12,10,17.60
2019,06,15,12,11,17.60
2019,06,15,12,12,17.60
2019,06,15,12,13,17.60
2019,06,15,12,14,17.60
2019,06,15,12,15,17.60
2019,06,15,12,16,17.60
2019,06,15,12,17,17.50
2019,06,15,12,18,17.40
2019,06,15,12,19,17.40
2019,06,15,12,20,17.40
2019,06,15,12,21,17.50
2019,06,15,12,22,17.60
2019,06,15,12,23,17.70
2019,06,15,12,24,17.60
2019,06,15,12,25,17.60
2019,06,15,12,26,17.70
2019,06,15,12,27,17.70
2019,06,15,12,28,17.70
2019,06,15,12,29,17.70
2019,06,15,12,30,17.70
2019,06,15,12,31,17.70
2019,06,15,12,32,17.60
2019,06,15,12,33,17.60
2019,06,15,12,34,17.60
2019,06,15,12,35,17.60
2019,06,15,12,36,17.70
2019,06,15,12,37,17.70
2019,06,15,12,38,17.60
2019,06,15,12,39,17.60
2019,06,15,12,40,17.50
2019,06,15,12,41,17.40
2019,06,15,12,42,17.40
2019,06,15,12,43,17.40
2019,06,15,12,44,17.40
2019,06,15,12,45,17.30
2019,06,15,12,46,17.30
2019,06,15,12,47,17.30
2019,06,15,12,48,17.40
2019,06,15,12,49,17.50
2019,06,15,12,50,17.60
2019,06,15,12,51,17.60
2019,06,15,12,52,17.70
2019,06,15,12,53,17.80
2019,06,15,12,54,17.80
2019,06,15,12,55,17.90
2019,06,15,12,56,17.90
2019,06,15,12,57,18.00
2019,06,15,12,58,18.00
2019,06,15,12,59,18.00
2019,06,15,13,00,18.00
2019,06,15,13,01,18.00
2019,06,15,13,02,18.10
2019,06,15,13,03,18.10
2019,06,15,13,04,18.00
2019,06,15,13,05,18.00
2019,06,15,13,06,17.90
2019,06,15,13,07,17.80
2019,06,15,13,08,17.80
2019,06,15,13,09,17.90
2019,06,15,13,10,17.90
2019,06,15,13,11,18.00
2019,06,15,13,12,18.10
2019,06,15,13,13,18.10
2019,06,15,13,14,18.10
2019,06,15,13,15,18.10
2019,06,15,13,16,18.10
2019,06,15,13,17,18.10
2019,06,15,13,18,18.10
2019,06,15,13,19,18.20
2019,06,15,13,20,18.20
2019,06,15,13,21,18.20
2019,06,15,13,22,18.20
2019,06,15,13,23,18.30
2019,06,15,13,24,18.40
2019,06,15,13,25,18.50
2019,06,15,13,26,18.50
2019,06,15,13,27,18.60
2019,06,15,13,28,18.60
2019,06,15,13,29,18.50
2019,06,15,13,30,18.50
2019,06,15,13,31,18.40
2019,06,15,13,32,18.30
2019,06,15,13,33,18.40
2019,06,15,13,34,18.40
2019,06,15,13,35,18.50
2019,06,15,13,36,18.50
2019,06,15,13,37,18.60
2019,06,15,13,38,18.70
2019,06,15,13,39,18.80
2019,06,15,13,40,18.90
2019,06,15,13,41,18.90
2019,06,15,13,42,19.00
2019,06,15,13,43,19.10
2019,06,15,13,44,19.20
2019,06,15,13,45,19.20
2019,06,15,13,46,19.30
2019,06,15,13,47,19.30
2019,06,15,13,48,19.20
2019,06,15,13,49,19.20
2019,06,15,13,50,19.10
2019,06,15,13,51,19.00
2019,06,15,13,52,18.90
2019,06,15,13,53,18.90
2019,06,15,13,54,19.00
2019,06,15,13,55,19.00
2019,06,15,13,56,19.00
2019,06,15,13,57,19.00
2019,06,15,13,58,18.90
2019,06,15,13,59,18.90
2019,06,15,14,00,18.90
2019,06,15,14,01,18.90
2019,06,15,14,02,18.90
2019,06,15,14,03,18.90
2019,06,15,14,04,18.90
2019,06,15,14,05,18.90
2019,06,15,14,06,18.90
2019,06,15,14,07,18.90
2019,06,15,14,08,18.90
2019,06,15,14,09,18.90
2019,06,15,14,10,18.90
2019,06,15,14,11,18.90
2019,06,15,14,12,18.90
2019,06,15,14,13,18.90
2019,06,15,14,14,18.90
2019,06,15,14,15,18.80
2019,06,15,14,16,18.80
2019,06,15,14,17,18.80
2019,06,15,14,18,18.80
2019,06,15,14,19,18.80
2019,06,15,14,20,18.80
2019,06,15,14,21,18.80
2019,06,15,14,22,18.80
2019,06,15,14,23,18.90
2019,06,15,14,24,18.90
2019,06,15,14,25,18.90
2019,06,15,14,26,18.90
2019,06,15,14,27,18.90
2019,06,15,14,28,18.90
2019,06,15,14,29,19.00
2019,06,15,14,30,19.00
2019,06,15,14,31,19.00
2019,06,15,14,32,19.00
2019,06,15,14,33,19.00
2019,06,15,14,34,18.90
2019,06,15,14,35,18.90
2019,06,15,14,36,18.90
2019,06,15,14,37,18.90
2019,06,15,14,38,18.90
2019,06,15,14,39,18.90
2019,06,15,14,40,19.00
2019,06,15,14,41,19.00
2019,06,15,14,42,19.10
2019,06,15,14,43,19.20
2019,06,15,14,44,19.30
2019,06,15,14,45,19.30
2019,06,15,14,46,19.50
2019,06,15,14,47,19.60
2019,06,15,14,48,19.70
2019,06,15,14,49,19.70
2019,06,15,14,50,19.80
2019,06,15,14,51,19.80
2019,06,15,14,52,19.90
2019,06,15,14,53,19.90
2019,06,15,14,54,20.00
2019,06,15,14,55,20.00
2019,06,15,14,56,20.10
2019,06,15,14,57,20.20
2019,06,15,14,58,20.20
2019,06,15,14,59,20.20
2019,06,15,15,00,20.20
2019,06,15,15,01,20.30
2019,06,15,15,02,20.30
2019,06,15,15,03,20.30
2019,06,15,15,04,20.30
2019,06,15,15,05,20.40
2019,06,15,15,06,20.40
2019,06,15,15,07,20.40
2019,06,15,15,08,20.50
2019,06,15,15,09,20.50
2019,06,15,15,10,20.40
2019,06,15,15,11,20.40
2019,06,15,15,12,20.30
2019,06,15,15,13,20.30
2019,06,15,15,14,20.40
2019,06,15,15,15,20.40
2019,06,15,15,16,20.50
2019,06,15,15,17,20.40
2019,06,15,15,18,20.40
2019,06,15,15,19,20.40
2019,06,15,15,20,20.50
2019,06,15,15,21,20.50
2019,06,15,15,22,20.50
2019,06,15,15,23,20.60
2019,06,15,15,24,20.70
2019,06,15,15,25,20.70
2019,06,15,15,26,20.80
2019,06,15,15,27,20.80
2019,06,15,15,28,20.90
2019,06,15,15,29,20.90
2019,06,15,15,30,20.90
2019,06,15,15,31,20.90
2019,06,15,15,32,20.90
2019,06,15,15,33,20.90
2019,06,15,15,34,20.90
2019,06,15,15,35,20.90
2019,06,15,15,36,20.80
2019,06,15,15,37,20.80
2019,06,15,15,38,20.80
2019,06,15,15,39,20.80
2019,06,15,15,40,20.80
2019,06,15,15,41,20.80
2019,06,15,15,42,20.80
2019,06,15,15,43,20.80
2019,06,15,15,44,20.70
2019,06,15,15,45,20.70
2019,06,15,15,46,20.60
2019,06,15,15,47,20.60
2019,06,15,15,48,20.60
2019,06,15,15,49,20.50
2019,06,15,15,50,20.50
2019,06,15,15,51,20.40
2019,06,15,15,52,20.40
2019,06,15,15,53,20.40
2019,06,15,15,54,20.40
2019,06,15,15,55,20.40
2019,06,15,15,56,20.40
2019,06,15,15,57,20.40
2019,06,15,15,58,20.40
2019,06,15,15,59,20.30
2019,06,15,16,00,20.30
2019,06,15,16,01,20.30
2019,06,15,16,02,20.20
2019,06,15,16,03,20.20
2019,06,15,16,04,20.10
2019,06,15,16,05,20.10
2019,06,15,16,06,20.10
2019,06,15,16,07,20.10
2019,06,15,16,08,20.10
2019,06,15,16,09,20.20
2019,06,15,16,10,20.20
2019,06,15,16,11,20.20
2019,06,15,16,12,20.20
2019,06,15,16,13,20.30
2019,06,15,16,14,20.30
2019,06,15,16,15,20.40
2019,06,15,16,16,20.40
2019,06,15,16,17,20.40
2019,06,15,16,18,20.40
2019,06,15,16,19,20.40
2019,06,15,16,20,20.50
2019,06,15,16,21,20.50
2019,06,15,16,22,20.60
2019,06,15,16,23,20.70
2019,06,15,16,24,20.70
2019,06,15,16,25,20.70
2019,06,15,16,26,20.80
2019,06,15,16,27,20.80
2019,06,15,16,28,20.80
2019,06,15,16,29,20.90
2019,06,15,16,30,20.90
2019,06,15,16,31,21.00
2019,06,15,16,32,21.00
2019,06,15,16,33,21.00
2019,06,15,16,34,21.10
2019,06,15,16,35,21.10
2019,06,15,16,36,21.10
2019,06,15,16,37,21.10
2019,06,15,16,38,21.10
2019,06,15,16,39,21.20
2019,06,15,16,40,21.30
2019,06,15,16,41,21.30
2019,06,15,16,42,21.40
2019,06,15,16,43,21.40
2019,06,15,16,44,21.40
2019,06,15,16,45,21.40
2019,06,15,16,46,21.40
2019,06,15,16,47,21.30
2019,06,15,16,48,21.40
2019,06,15,16,49,21.30
2019,06,15,16,50,21.30
2019,06,15,16,51,21.20
2019,06,15,16,52,21.20
2019,06,15,16,53,21.20
2019,06,15,16,54,21.20
2019,06,15,16,55,21.10
2019,06,15,16,56,21.10
2019,06,15,16,57,21.00
2019,06,15,16,58,21.00
2019,06,15,16,59,20.90
2019,06,15,17,00,20.90
2019,06,15,17,01,20.90
2019,06,15,17,02,21.00
2019,06,15,17,03,21.00
2019,06,15,17,04,21.10
2019,06,15,17,05,21.10
2019,06,15,17,06,21.10
2019,06,15,17,07,21.00
2019,06,15,17,08,21.00
2019,06,15,17,09,21.00
2019,06,15,17,10,21.00
2019,06,15,17,11,21.00
2019,06,15,17,12,21.00
2019,06,15,17,13,21.10
2019,06,15,17,14,21.10
2019,06,15,17,15,21.10
2019,06,15,17,16,21.20
2019,06,15,17,17,21.20
2019,06,15,17,18,21.20
2019,06,15,17,19,21.30